DF4WC-13 Weather Reports


time (UTC)temp
F
wind
direction
speed
knots
gust
knots
rain 1hr
in
rain 24hr
in
rain mn
in
humidity
%
barometer
mb
20260506061719 -23 0 0.0 0.9 0.00 0.34 0.00 27 814.4
20260506044719 -23 0 0.0 0.0 0.00 0.34 0.00 76 814.4
20260506041719 -23 0 0.0 0.0 0.00 0.34 0.00 76 814.4
20260506034719 -23 0 0.0 0.0 0.00 0.34 0.00 74 814.4
20260506031719 -23 0 0.0 0.0 0.00 0.34 0.00 74 814.4
20260506024719 -23 0 0.0 0.0 0.02 0.34 0.00 75 814.4
20260506021719 -23 0 0.0 0.0 0.00 0.32 0.00 74 814.4
20260506014720 -23 0 0.0 0.0 0.00 0.32 0.00 74 814.4
20260506011720 -23 0 0.0 0.0 0.00 0.32 0.00 73 814.4
20260506004720 -23 0 0.0 0.0 0.00 0.32 0.00 72 814.4
20260506001720 -23 0 0.0 0.0 0.00 0.32 0.00 73 814.4
20260505234720 -23 0 0.0 0.0 0.02 0.32 0.00 73 814.4
20260505231720 -23 0 0.0 0.0 0.06 0.32 0.00 72 814.4
20260505224720 -23 0 0.0 0.0 0.11 0.31 0.00 68 814.4
20260505221720 -23 0 0.0 0.0 0.07 0.27 0.00 67 814.4
20260505214720 -23 0 0.0 0.0 0.00 0.19 0.00 67 814.4
20260505211720 -23 0 0.0 0.0 0.00 0.19 0.00 65 814.4
20260505204720 -23 0 0.0 0.0 0.00 0.19 0.00 65 814.4
20260505201720 -23 0 0.0 0.0 0.00 0.19 0.00 64 814.4
20260505194720 -23 0 0.0 0.0 0.00 0.19 0.00 63 814.4
20260505191720 -23 0 0.0 0.0 0.00 0.19 0.00 61 814.4
20260505184720 -23 0 0.0 0.0 0.00 0.19 0.00 55 814.4
20260505181720 -23 0 0.0 0.0 0.00 0.19 0.00 46 814.4
20260505174720 -23 0 0.0 0.0 0.02 0.19 0.00 46 814.4
20260505171718 -23 0 0.0 0.0 0.02 0.19 0.00 42 814.4
20260505164718 -23 0 0.0 0.0 0.00 0.17 0.00 41 814.4
20260505161718 -23 0 0.0 0.0 0.04 0.17 0.00 42 814.4
20260505151718 -23 0 0.0 0.0 0.09 0.11 0.00 36 814.4
20260505124718 -23 0 0.0 0.0 0.00 0.00 0.00 20 814.4
20260505121718 -23 0 0.0 0.0 0.00 0.00 0.00 20 814.4
20260505114718 -23 0 0.0 0.0 0.00 0.00 0.00 20 814.4
20260505111718 -23 0 0.0 0.0 0.00 0.00 0.00 20 814.4
20260505101719 -23 0 0.0 0.0 0.00 0.00 0.00 20 814.4
20260505094719 -23 0 0.0 0.0 0.00 0.00 0.00 20 814.4
20260505091719 -23 0 0.0 0.0 0.00 0.00 0.00 20 814.4
20260505084719 -23 0 0.0 0.0 0.00 0.00 0.00 20 814.4
20260505081719 -23 0 0.0 0.0 0.00 0.00 0.00 20 814.4
20260505074719 -23 0 0.0 0.0 0.00 0.00 0.00 21 814.4
20260505071719 -23 0 0.0 0.0 0.00 0.00 0.00 26 814.4